Ely, NV

10:12 AM PDT on July 20, 2017 (GMT -0700)
Ely

Weather History for KELY - November, 2013

Change the Weather History Date:

Thursday, November 14, 2013

  Actual Average Record
Temperature  
Mean Temperature 41 °F 34 °F  
Max Temperature 62 °F 49 °F 71 °F (1999)
Min Temperature 19 °F 19 °F -15 °F (1964)
Degree Days  
Heating Degree Days 24 31  
Month to date heating degree days 348 391  
Since 1 July heating degree days 1249 1319  
Cooling Degree Days 0 0  
Month to date cooling degree days 0 0  
Year to date cooling degree days 387 218  
Moisture  
Dew Point 15 °F    
Average Humidity 49    
Maximum Humidity 91    
Minimum Humidity 7    
Precipitation  
Precipitation 0.00 in 0.02 in 0.54 in (1988)
Month to date precipitation 0.02 0.38  
Year to date precipitation 6.70 8.85  
Snow  
Snow 0.00 in 0.20 in 6.70 in (1988)
Month to date snowfall T 2.5  
Since 1 July snowfall 3.0 5.9  
Since 1 September snowfall 3.0 5.9  
Snow Depth 0.00 in    
Sea Level Pressure  
Sea Level Pressure 29.99 in    
Wind  
Wind Speed 11 mph (South)    
Max Wind Speed 25 mph    
Max Gust Speed 36 mph    
Visibility 10 miles    
Events      
T = Trace of Precipitation, MM = Missing Value Source: NWS Daily Summary

Daily Weather History Graph

Daily Weather History Graph

Search for Another Location

Airport or City:

Trip Planner

Search our weather history database for the weather conditions in past years. The results will help you decide how hot, cold, wet, or windy it might be!

Date:

Astronomy

Nov. 14, 2013 Rise Set
Actual Time 6:22 AM PST 4:25 PM PST
Civil Twilight 5:53 AM PST 4:53 PM PST
Nautical Twilight 5:21 AM PST 5:26 PM PST
Astronomical Twilight 4:49 AM PST 5:57 PM PST
Moon 2:48 PM PST (11/14) 3:22 AM PST (11/14)
Length of Visible Light 11h 00m
Length of Day
10h 02m
Waxing Gibbous, 92% of the Moon is Illuminated
Nov 14
Waxing Gibbous
Nov 17
Full
Nov 25
Last Quarter
Dec 2
New
Dec 9
First Quarter

Hourly Weather History & Observations

Time (PST) Temp. Windchill Dew Point Humidity Pressure Visibility Wind Dir Wind Speed Gust Speed Precip Events Conditions
12:53 AM 27.0 °F 17.3 °F 19.0 °F 72% 30.18 in 10.0 mi South 10.4 mph - N/A   Clear
1:53 AM 23.0 °F 13.9 °F 18.0 °F 81% 30.23 in 10.0 mi South 8.1 mph - N/A   Clear
2:53 AM 24.1 °F 13.1 °F 19.0 °F 81% 30.19 in 10.0 mi South 11.5 mph - N/A   Clear
3:53 AM 23.0 °F 12.4 °F 18.0 °F 81% 30.19 in 10.0 mi South 10.4 mph - N/A   Clear
4:53 AM 21.0 °F 8.6 °F 17.1 °F 85% 30.21 in 10.0 mi SSE 12.7 mph - N/A   Clear
5:53 AM 19.9 °F 8.6 °F 17.1 °F 89% 30.21 in 10.0 mi SSE 10.4 mph - N/A   Clear
6:53 AM 21.0 °F 8.6 °F 17.1 °F 85% 30.22 in 10.0 mi South 12.7 mph - N/A   Clear
7:53 AM 33.1 °F 25.5 °F 24.1 °F 70% 30.20 in 10.0 mi South 9.2 mph - N/A   Clear
8:53 AM 41.0 °F 35.2 °F 26.1 °F 55% 30.14 in 10.0 mi South 9.2 mph - N/A   Clear
9:53 AM 48.9 °F - 26.1 °F 41% 30.08 in 10.0 mi South 5.8 mph - N/A   Clear
10:53 AM 54.0 °F - 5.0 °F 14% 30.04 in 10.0 mi South 12.7 mph - N/A   Clear
11:53 AM 57.0 °F - 8.1 °F 14% 29.94 in 10.0 mi SW 10.4 mph - N/A   Clear
12:53 PM 62.1 °F - -2.9 °F 7% 29.84 in 10.0 mi SSE 20.7 mph 27.6 mph N/A   Clear
1:53 PM 60.1 °F - 3.0 °F 10% 29.85 in 10.0 mi South 21.9 mph 31.1 mph N/A   Clear
2:13 PM 57.0 °F - 7.0 °F 14% 29.93 in 10.0 mi SW 21.9 mph 29.9 mph N/A   Clear
2:53 PM 55.9 °F - 12.0 °F 18% 29.85 in 10.0 mi South 18.4 mph 26.5 mph N/A   Clear
3:53 PM 53.1 °F - 14.0 °F 21% 29.86 in 10.0 mi South 17.3 mph - N/A   Clear
4:53 PM 48.0 °F - 14.0 °F 26% 29.88 in 10.0 mi South 10.4 mph - N/A   Clear
5:53 PM 43.0 °F 37.2 °F 16.0 °F 34% 29.91 in 10.0 mi South 10.4 mph - N/A   Clear
6:53 PM 39.9 °F 33.9 °F 16.0 °F 38% 29.89 in 10.0 mi South 9.2 mph - N/A   Clear
7:53 PM 34.0 °F 28.8 °F 15.1 °F 46% 29.85 in 10.0 mi South 5.8 mph - N/A   Clear
8:53 PM 33.1 °F 25.5 °F 16.0 °F 50% 29.80 in 10.0 mi SE 9.2 mph - N/A   Clear
9:53 PM 27.0 °F - 14.0 °F 58% 29.78 in 10.0 mi Calm Calm - N/A   Clear
10:53 PM 28.0 °F 18.6 °F 14.0 °F 56% 29.74 in 10.0 mi South 10.4 mph - N/A   Clear
11:53 PM 28.0 °F 20.8 °F 14.0 °F 56% 29.71 in 10.0 mi South 6.9 mph - N/A   Partly Cloudy